Regional Weather Roundup
Issued by NWS

Home | Current Version | Previous Version | Text Only | Print | Product List | Glossary Off
Versions: 1 2 3 4 5 6 7 8 9 10 11 12 13 14 15 16 17 18 19 20 21 22 23 24 25 26 27 28 29 30 31 32 33 34 35 36 37 38 39 40 41 42 43 44 45 46 47 48 49 50

000
ASUS43 KMPX 201201
RWRMN
WEATHER ROUNDUP FOR MINNESOTA
NATIONAL WEATHER SERVICE TWIN CITIES/CHANHASSEN MN
700 AM CDT WED SEP 20 2017


NOTE: "FAIR" INDICATES FEW OR NO CLOUDS BELOW 12,000 FEET WITH NO
SIGNIFICANT WEATHER AND/OR OBSTRUCTIONS TO VISIBILITY. N/A MEANS
CURRENT SKY AND/OR WEATHER CONDITIONS ARE NOT AVAILABLE.

MNZ060>063-068>070-201300-
   Twin Cities Metro

CITY           SKY/WX    TMP DP  RH WIND       PRES   REMARKS
TWIN CITIES    CLOUDY    71  68  90 SE10      29.62R
6HR MIN TEMP:  70; 6HR MAX TEMP:  73; 6HR PCP:  0.04;

ST PAUL        CLOUDY    70  68  93 SE12      29.63R
CRYSTAL        CLOUDY    70  65  84 S7        29.61R
BLAINE         CLOUDY    72  70  94 S9        29.62R
LAKEVILLE      CLOUDY    70  70 100 S7        29.63S
EDEN PRAIRIE   PTCLDY    67  64  90 SW7       29.62R
6HR MIN TEMP:  67; 6HR MAX TEMP:  73; 6HR PCP:  0.20;

SOUTH ST PAUL  CLOUDY    71  67  90 S9        29.63R
LAKE ELMO      CLOUDY    70  66  88 S8        29.65R
$$
MNZ001>005-007-008-013>017-022>024-027-028-201300-
   Northwest Minnesota

CITY           SKY/WX    TMP DP  RH WIND       PRES   REMARKS
BEMIDJI        CLOUDY    59  58  94 W16G23    29.57R
HALLOCK        CLOUDY    55  52  88 W8        29.54R
ROSEAU         CLOUDY    57  52  82 W12       29.52R
WARROAD        LGT RAIN  57  54  88 W14G30    29.51R
CROOKSTON      CLOUDY    55  54  94 W6        29.59R
FOSSTON        CLOUDY    54  54 100 W8        29.59R
DETROIT LAKES  CLOUDY    55  52  88 W9        29.65R
MOORHEAD       CLOUDY    54  48  82 W10       29.65R
PARK RAPIDS    CLOUDY    59  56  89 W15       29.61R
MAHNOMEN       CLOUDY    55  52  90 W10       29.61R
$$
MNZ006-009>011-018-025>026-201300-
   North Central Minnesota

CITY           SKY/WX    TMP DP  RH WIND       PRES   REMARKS
BAUDETTE       CLOUDY    61  60  97 S9        29.49R
FLAG ISLAND    CLOUDY    61  59  94 S20       29.46S
INTL FALLS     CLOUDY    60  58  92 SE10      29.52F
6HR MIN TEMP:  60; 6HR MAX TEMP:  65; 6HR PCP:  0.94;

WASKISH        CLOUDY    61  61 100 S6        29.53R FOG
BIG FORK       MOCLDY    63  61  94 S12G18    29.56F
LONGVILLE      PTCLDY    59  57  94 SW10      29.59R
GRAND RAPIDS   CLOUDY    61  60  97 SE10      29.59F
CRANE LAKE     CLOUDY    57  57 100 CALM      29.59S FOG
ORR            CLOUDY    61  57  88 S9        29.57R
COOK           CLOUDY    63  61  94 SE8G17    29.60R
WALKER         CLOUDY    60  59  98 SW9       29.59R
$$
MNZ012-019>021-037-201300-
   Northeast Minnesota

CITY           SKY/WX    TMP DP  RH WIND       PRES   REMARKS
DULUTH         LGT RAIN  60  60 100 SE17      29.66S
6HR MIN TEMP:  59; 6HR MAX TEMP:  64; 6HR PCP:  0.52;

ELY            RAIN      59  57  94 S7        29.64R
HIBBING        CLOUDY    59  59 100 SE13      29.62S
EVELETH        CLOUDY    60  59  96 SE8       29.64R
DULUTH HARBOR  CLOUDY    63  61  94 SE7       29.65S
TWO HARBORS    DRIZZLE   63  57  82 E6        29.67R
SILVER BAY     CLOUDY    61  59  94 E8        29.68F FOG
$$
MNZ029>031-032-039>041-046>048-054>057-064-201300-
   West Central Minnesota

CITY           SKY/WX    TMP DP  RH WIND       PRES   REMARKS
FERGUS FALLS   MOCLDY    55  55 100 W10       29.66R
WHEATON        CLOUDY    57  52  82 W6        29.70R
MORRIS         CLOUDY    57  55  94 NW8       29.65S
ALEXANDRIA     CLOUDY    58  56  93 W17       29.68R
ELBOW LAKE     FAIR      56  55  96 NW7       29.66S
WADENA         CLOUDY    59  59 100 W7G18     29.62R
GLENWOOD       PTCLDY    57  57 100 W16       29.68R
APPLETON       PTCLDY    59  55  88 W6        29.67R
BENSON         PTCLDY    59  55  88 NW7       29.69R
ORTONVILLE     CLOUDY    57  54  88 W12G17    29.70R
MADISON        CLOUDY    61  61 100 W9        29.69S
WILLMAR        FAIR      59  57  94 W8        29.69R
$$
MNZ033>034-036-042>043-049>051-058-059-201300-
   Central Minnesota

CITY           SKY/WX    TMP DP  RH WIND       PRES   REMARKS
ST CLOUD       CLEAR     61  61 100 SE6       29.59S
6HR MIN TEMP:  60; 6HR MAX TEMP:  71; 6HR PCP:  0.56;

SAUK CENTRE    CLOUDY    60  59  97 W14       29.65R
PAYNESVILLE    MOCLDY    61  60  99 W12       29.66R
AITKIN         PTCLDY    63  61  94 SE9G17    29.57F
PINE RIVER     MOCLDY    57  55  94 SW8       29.65R
BRAINERD       MOCLDY    60  59  96 S6        29.59R
STAPLES        CLOUDY    59  59 100 SW8       29.61R FOG
LONG PRAIRIE   CLOUDY    59  59 100 S5        29.65R
LITTLE FALLS   CLOUDY    61  59  94 W9G17     29.63R
LITCHFIELD     MOCLDY    63  63 100 W8G17     29.66R
BUFFALO        PTCLDY    63  60  90 SE3       29.62S
MAPLE LAKE     PTCLDY    63  62  97 CALM      29.61S
HUTCHINSON     MOCLDY    62  62  99 W12       29.68R
$$
MNZ037-044-045-052-053-201300-
   East Central Minnesota

CITY           SKY/WX    TMP DP  RH WIND       PRES   REMARKS
PRINCETON      CLOUDY    66  64  94 CALM      29.61R
MORA           CLOUDY    64  64 100 SE7       29.63R
RUSH CITY      CLOUDY    66  64  94 SE8       29.62F
MOOSE LAKE     CLOUDY    63  61  94 SE3       29.60S
HINCKLEY       CLOUDY    64  64 100 CALM      29.62F
CLOQUET        DRIZZLE   61  57  88 E10       29.63F
MCGREGOR       CLOUDY    61  61 100 CALM      29.62R
$$
MNZ071>073-080-081-089-090-097-098-201300-
   Southwest Minnesota

CITY           SKY/WX    TMP DP  RH WIND       PRES   REMARKS
MONTEVIDEO     CLEAR     57  55  94 NW5       29.68R
GRANITE FALLS  CLEAR     58  56  92 W10       29.72R
CANBY          CLOUDY    58  54  88 W9        29.73R
MARSHALL       CLEAR     57  54  89 W7        29.70R
REDWOOD FALLS  CLEAR     60  54  80 W12       29.68R
OLIVIA         CLEAR     55  54  94 W9        29.67R
PIPESTONE      CLEAR     55  52  88 W5        29.73S
WORTHINGTON    CLEAR     57  54  89 W10       29.74R
JACKSON        CLEAR     59  54  82 W10G17    29.72R
TRACY          CLEAR     58  56  93 W8        29.72R
SLAYTON        CLEAR     57  54  88 W12       29.73R
$$
MNZ065>067-074>077-082>085-091>093-201300-
   South Central Minnesota

CITY           SKY/WX    TMP DP  RH WIND       PRES   REMARKS
MANKATO        CLEAR     63  61  93 S6        29.66S
NEW ULM        CLEAR     61  59  94 W10       29.67R
ST JAMES       CLEAR     59  57  94 SW5       29.67R
FAIRMONT       CLEAR     59  58  96 W3        29.68R
GLENCOE        PTCLDY    63  63 100 CALM      29.62R
FARIBAULT      CLOUDY    70  66  88 SE9       29.66R
OWATONNA       CLOUDY    70  64  83 S12       29.67R
WASECA         MOCLDY    64  61  88 CALM      29.67S
ALBERT LEA     CLEAR     72  68  88 S6        29.68R
$$
MNZ078>079-086>088-094>096-201300-
   Southeast Minnesota

CITY           SKY/WX    TMP DP  RH WIND       PRES   REMARKS
ROCHESTER      PTCLDY    69  65  86 S10       29.70S
6HR MIN TEMP:  67; 6HR MAX TEMP:  70;

RED WING       PTCLDY    72  63  73 SE6       29.66R
STANTON        CLOUDY    71  65  81 S7        29.64R
DODGE CENTER   CLEAR     68  64  88 S10       29.69R
WINONA         CLOUDY    72  63  73 S5        29.71S
AUSTIN         PTCLDY    70  64  83 S8        29.69R
PRESTON        CLOUDY    69  63  82 S9        29.73R
$$
ABBREVIATIONS USED IN REMARKS
   TC - TEMPERATURES IN CELSIUS
  WCI - WIND CHILL INDEX
   HX - HEAT INDEX
  VSB - VISIBILITY
$$



USA.gov is the U.S. government's official web portal to all federal, state and local government web resources and services.